Weather History for K3R7 - August, 2013

Change the Weather History Date:

Tuesday, August 6, 2013

  Actual Average (KLCH) Record (KLCH)
Temperature  
Mean Temperature 86 °F 83 °F  
Max Temperature 96 °F 92 °F 101 °F (1913)
Min Temperature 75 °F 75 °F 62 °F (1912)
Degree Days  
Heating Degree Days 0 0  
Month to date heating degree days 0  
Since 1 June heating degree days 0  
Since 1 July heating degree days 0  
Cooling Degree Days 20 18  
Month to date cooling degree days 108  
Year to date cooling degree days 1679  
Since 1 June cooling degree days 1141  
Growing Degree Days 36 (Base 50)    
Moisture  
Dew Point 75 °F    
Average Humidity 76    
Maximum Humidity 98    
Minimum Humidity 41    
Precipitation  
Precipitation 0.00 in 0.17 in 2.00 in (1907)
Month to date precipitation 1.01  
Year to date precipitation 34.37  
Snow  
Snow 0.00 in 0.00 in 0.00 in ()
Month to date snowfall 0.0  
Since 1 June snowfall 0.0  
Since 1 July snowfall 0.0  
Snow Depth -    
Sea Level Pressure  
Sea Level Pressure 29.96 in    
Wind  
Wind Speed 5 mph (SW)    
Max Wind Speed 13 mph    
Max Gust Speed 18 mph    
Visibility 10 miles    
Events      
T = Trace of Precipitation, MM = Missing Value Source: NWS Daily Summary

Daily Weather History Graph

Daily Weather History Graph

Search for Another Location

Airport or City:

Trip Planner

Search our weather history database for the weather conditions in past years. The results will help you decide how hot, cold, wet, or windy it might be!

Date:

Astronomy

Aug. 06, 2013 Rise Set
Actual Time 6:32 AM CDT 8:00 PM CDT
Civil Twilight 6:06 AM CDT 8:25 PM CDT
Nautical Twilight 5:36 AM CDT 8:56 PM CDT
Astronomical Twilight 5:03 AM CDT 9:28 PM CDT
Moon 6:20 AM CDT (8/6) 7:41 PM CDT (8/6)
Length of Visible Light 14h 19m
Length of Day
13h 27m
Waning Crescent, 0% of the Moon is Illuminated
Aug 6
Waning Crescent
Aug 6
New
Aug 14
First Quarter
Aug 20
Full
Aug 28
Last Quarter

Hourly Weather History & Observations

Time (CDT) Temp. Heat Index Dew Point Humidity Pressure Visibility Wind Dir Wind Speed Gust Speed Precip Events Conditions
12:15 AM 78.3 °F - 75.7 °F 92% 29.98 in 10.0 mi Calm Calm - N/A   Clear
12:35 AM 77.9 °F - 75.7 °F 93% 29.97 in 10.0 mi SSW 3.5 mph - N/A   Clear
12:55 AM 78.1 °F - 76.1 °F 94% 29.97 in 10.0 mi SW 3.5 mph - N/A   Clear
1:15 AM 77.9 °F - 75.7 °F 93% 29.96 in 10.0 mi SW 4.6 mph - N/A   Clear
1:35 AM 77.4 °F - 75.6 °F 94% 29.97 in 10.0 mi SW 3.5 mph - N/A   Clear
1:55 AM 77.4 °F - 75.6 °F 94% 29.96 in 10.0 mi SW 3.5 mph - N/A   Clear
2:15 AM 77.0 °F - 75.6 °F 95% 29.96 in 10.0 mi SW 3.5 mph - N/A   Clear
2:35 AM 77.0 °F - 75.7 °F 96% 29.95 in 10.0 mi Calm Calm - N/A   Clear
2:55 AM 77.0 °F - 75.6 °F 95% 29.95 in 10.0 mi Calm Calm - N/A   Clear
3:15 AM 76.8 °F - 75.6 °F 96% 29.94 in 10.0 mi SSW 3.5 mph - N/A   Clear
3:35 AM 76.8 °F - 75.4 °F 95% 29.94 in 10.0 mi Calm Calm - N/A   Clear
3:55 AM 76.6 °F - 75.6 °F 96% 29.94 in 10.0 mi SSW 3.5 mph - N/A   Clear
4:15 AM 76.6 °F - 75.6 °F 96% 29.94 in 10.0 mi SSW 3.5 mph - N/A   Clear
4:35 AM 76.5 °F - 75.4 °F 96% 29.94 in 10.0 mi SW 4.6 mph - N/A   Clear
4:55 AM 76.6 °F - 75.4 °F 96% 29.94 in 10.0 mi Calm Calm - N/A   Clear
5:15 AM 76.1 °F - 75.2 °F 97% 29.94 in 10.0 mi Calm Calm - N/A   Clear
5:35 AM 76.1 °F - 75.2 °F 97% 29.95 in 10.0 mi Calm Calm - N/A   Clear
5:55 AM 76.1 °F - 75.2 °F 97% 29.95 in 10.0 mi Calm Calm - N/A   Clear
6:15 AM 75.7 °F - 75.2 °F 98% 29.96 in 10.0 mi Calm Calm - N/A   Clear
6:35 AM 75.7 °F - 74.8 °F 97% 29.97 in 10.0 mi Calm Calm - N/A   Clear
6:55 AM 75.7 °F - 75.2 °F 98% 29.98 in 7.0 mi Calm Calm - N/A   Scattered Clouds
7:15 AM 76.5 °F - 75.6 °F 97% 29.99 in 7.0 mi Calm Calm - N/A   Scattered Clouds
7:35 AM 77.9 °F - 76.3 °F 95% 29.99 in 10.0 mi Calm Calm - N/A   Clear
7:55 AM 79.3 °F - 76.8 °F 92% 29.99 in 10.0 mi WSW 3.5 mph - N/A   Clear
8:15 AM 80.6 °F 87.1 °F 77.2 °F 89% 29.99 in 10.0 mi WSW 4.6 mph - N/A   Clear
8:35 AM 81.7 °F 90.0 °F 77.7 °F 88% 29.99 in 10.0 mi SW 4.6 mph - N/A   Clear
8:55 AM 83.3 °F 92.8 °F 77.4 °F 82% 29.99 in 10.0 mi WSW 8.1 mph - N/A   Clear
9:15 AM 84.7 °F 95.2 °F 77.2 °F 78% 29.99 in 10.0 mi WSW 9.2 mph - N/A   Clear
9:35 AM 86.0 °F 96.9 °F 77.0 °F 74% 30.00 in 10.0 mi WSW 10.4 mph - N/A   Scattered Clouds
9:55 AM 87.3 °F 98.2 °F 76.3 °F 70% 30.00 in 10.0 mi WSW 9.2 mph - N/A   Scattered Clouds
10:15 AM 86.5 °F 96.4 °F 75.9 °F 70% 30.01 in 7.0 mi WSW 4.6 mph - N/A   Clear
10:35 AM 88.2 °F 98.0 °F 75.0 °F 65% 30.01 in 10.0 mi WSW 6.9 mph - N/A   Scattered Clouds
10:55 AM 88.7 °F 97.7 °F 74.3 °F 62% 30.01 in 10.0 mi SW 6.9 mph - N/A   Scattered Clouds
11:15 AM 89.4 °F 97.8 °F 73.6 °F 59% 30.00 in 10.0 mi West 9.2 mph - N/A   Scattered Clouds
11:35 AM 91.2 °F 100.2 °F 73.4 °F 56% 30.00 in 10.0 mi WSW 8.1 mph - N/A   Scattered Clouds
11:55 AM 91.4 °F 100.1 °F 73.2 °F 55% 29.99 in 10.0 mi WSW 9.2 mph - N/A   Scattered Clouds
12:15 PM 92.3 °F 100.3 °F 72.3 °F 52% 29.99 in 10.0 mi WSW 8.1 mph - N/A   Scattered Clouds
12:35 PM 93.2 °F 100.5 °F 71.4 °F 49% 29.99 in 10.0 mi West 9.2 mph - N/A   Scattered Clouds
12:55 PM 94.1 °F 100.6 °F 70.3 °F 46% 29.98 in 10.0 mi SW 9.2 mph - N/A   Clear
1:15 PM 94.1 °F 101.2 °F 71.1 °F 47% 29.97 in 10.0 mi WSW 9.2 mph - N/A   Clear
1:35 PM 94.6 °F 100.0 °F 68.7 °F 43% 29.97 in 10.0 mi West 10.4 mph - N/A   Clear
1:55 PM 96.1 °F 101.6 °F 68.7 °F 41% 29.96 in 10.0 mi West 8.1 mph - N/A   Clear
2:15 PM 94.8 °F 102.8 °F 71.4 °F 47% 29.95 in 10.0 mi SW 11.5 mph 16.1 mph N/A   Scattered Clouds
2:35 PM 95.2 °F 104.2 °F 72.7 °F 48% 29.95 in 10.0 mi WSW 9.2 mph - N/A   Scattered Clouds
2:55 PM 92.3 °F 101.5 °F 73.4 °F 54% 29.95 in 10.0 mi SW 9.2 mph - N/A   Scattered Clouds
3:15 PM 94.3 °F 106.3 °F 75.2 °F 54% 29.94 in 10.0 mi WSW 10.4 mph 17.3 mph N/A   Scattered Clouds
3:35 PM 92.1 °F 103.6 °F 75.4 °F 58% 29.94 in 10.0 mi SW 10.4 mph - N/A   Mostly Cloudy
3:55 PM 94.6 °F 106.5 °F 75.0 °F 53% 29.93 in 10.0 mi SW 11.5 mph 18.4 mph N/A   Scattered Clouds
4:15 PM 94.1 °F 104.5 °F 74.1 °F 52% 29.93 in 10.0 mi SW 10.4 mph 17.3 mph N/A   Scattered Clouds
4:35 PM 93.7 °F 105.0 °F 74.8 °F 54% 29.93 in 10.0 mi SW 8.1 mph 18.4 mph N/A   Scattered Clouds
4:55 PM 93.0 °F 103.2 °F 74.3 °F 54% 29.93 in 10.0 mi SW 12.7 mph 16.1 mph N/A   Clear
5:15 PM 92.5 °F 101.9 °F 73.8 °F 54% 29.92 in 10.0 mi SSW 8.1 mph - N/A   Clear
5:35 PM 92.3 °F 102.2 °F 73.8 °F 55% 29.92 in 10.0 mi SW 9.2 mph 16.1 mph N/A   Clear
5:55 PM 91.6 °F 101.7 °F 74.5 °F 57% 29.91 in 10.0 mi SW 9.2 mph - N/A   Clear
6:15 PM 91.4 °F 101.9 °F 74.7 °F 58% 29.91 in 10.0 mi SW 11.5 mph - N/A   Clear
6:35 PM 90.0 °F 100.2 °F 74.8 °F 61% 29.91 in 10.0 mi SW 9.2 mph 16.1 mph N/A   Clear
6:55 PM 89.1 °F 99.1 °F 74.8 °F 63% 29.91 in 10.0 mi SSW 11.5 mph 18.4 mph N/A   Clear
7:15 PM 87.8 °F 96.6 °F 74.5 °F 64% 29.91 in 10.0 mi SW 9.2 mph 16.1 mph N/A   Clear
7:35 PM 86.5 °F 95.5 °F 74.8 °F 68% 29.91 in 10.0 mi SW 10.4 mph - N/A   Clear
7:55 PM 85.1 °F 93.3 °F 74.8 °F 71% 29.92 in 10.0 mi SW 8.1 mph - N/A   Clear
8:15 PM 84.2 °F 91.9 °F 74.7 °F 73% 29.92 in 10.0 mi SW 6.9 mph - N/A   Clear
8:35 PM 83.3 °F 90.8 °F 74.8 °F 76% 29.93 in 10.0 mi SSW 5.8 mph - N/A   Clear
8:55 PM 82.6 °F 89.7 °F 75.2 °F 78% 29.94 in 10.0 mi SSW 8.1 mph - N/A   Clear
9:15 PM 81.7 °F 88.3 °F 75.2 °F 81% 29.94 in 10.0 mi SSW 5.8 mph - N/A   Clear
9:35 PM 81.5 °F 87.8 °F 75.2 °F 81% 29.94 in 10.0 mi SSW 6.9 mph - N/A   Clear
9:55 PM 80.8 °F 86.7 °F 75.4 °F 84% 29.95 in 10.0 mi North - - N/A   Clear
10:15 PM 80.2 °F 85.7 °F 75.6 °F 86% 29.95 in 10.0 mi North - - N/A   Clear
10:35 PM 79.9 °F - 75.7 °F 87% 29.96 in 10.0 mi SSW 4.6 mph - N/A   Clear
10:55 PM 79.7 °F - 75.9 °F 88% 29.96 in 10.0 mi SSW 4.6 mph - N/A   Clear
11:15 PM 79.3 °F - 75.9 °F 89% 29.96 in 10.0 mi SSW 3.5 mph - N/A   Clear
11:35 PM 79.3 °F - 76.1 °F 90% 29.96 in 10.0 mi SSW 4.6 mph - N/A   Clear
11:55 PM 79.2 °F - 76.1 °F 90% 29.96 in 10.0 mi SSW 3.5 mph - N/A   Clear